TimeEST,TemperatureF,Dew PointF,Humidity,Sea Level PressureIn,VisibilityMPH,Wind Direction,Wind SpeedMPH,Gust SpeedMPH,PrecipitationIn,Events,Conditions,WindDirDegrees,DateUTC
12:53 AM,44.1,39.9,85,30.17,10.0,Calm,Calm,-,N/A,,Clear,0,2013-03-05 05:53:00
2:53 AM,50.0,39.0,66,30.15,10.0,South,5.8,-,N/A,,Clear,180,2013-03-05 07:53:00
3:53 AM,50.0,42.1,74,30.14,10.0,SSW,5.8,-,N/A,,Clear,210,2013-03-05 08:53:00
4:53 AM,50.0,42.1,74,30.16,10.0,SSW,8.1,-,N/A,,Clear,200,2013-03-05 09:53:00
5:53 AM,50.0,42.1,74,30.16,10.0,South,8.1,-,N/A,,Clear,180,2013-03-05 10:53:00
6:53 AM,50.0,42.1,74,30.18,10.0,South,6.9,-,N/A,,Clear,180,2013-03-05 11:53:00
8:53 AM,55.9,43.0,62,30.21,10.0,South,4.6,-,N/A,,Clear,170,2013-03-05 13:53:00
9:53 AM,62.1,39.9,44,30.20,10.0,SSW,8.1,-,N/A,,Clear,200,2013-03-05 14:53:00
10:53 AM,66.9,42.1,40,30.19,10.0,SSW,8.1,-,N/A,,Clear,210,2013-03-05 15:53:00
11:53 AM,69.1,43.0,39,30.18,10.0,West,9.2,-,N/A,,Clear,270,2013-03-05 16:53:00
12:53 PM,72.0,45.0,38,30.14,10.0,SW,10.4,16.1,N/A,,Clear,230,2013-03-05 17:53:00
1:53 PM,73.9,45.0,35,30.10,10.0,WSW,6.9,-,N/A,,Clear,250,2013-03-05 18:53:00
2:53 PM,75.0,46.0,36,30.09,10.0,WSW,8.1,-,N/A,,Clear,250,2013-03-05 19:53:00
3:53 PM,75.9,46.9,36,30.08,10.0,WSW,15.0,20.7,N/A,,Clear,250,2013-03-05 20:53:00
4:53 PM,75.0,46.9,37,30.06,10.0,West,17.3,21.9,N/A,,Clear,280,2013-03-05 21:53:00
5:53 PM,72.0,48.9,44,30.06,10.0,SW,8.1,-,N/A,,Clear,230,2013-03-05 22:53:00
6:53 PM,68.0,44.1,42,30.06,10.0,SW,9.2,-,N/A,,Clear,230,2013-03-05 23:53:00
7:53 PM,66.0,44.1,45,30.04,10.0,SSW,10.4,-,N/A,,Clear,210,2013-03-06 00:53:00
8:53 PM,64.0,46.9,54,30.04,10.0,SW,10.4,-,N/A,,Clear,220,2013-03-06 01:53:00
9:53 PM,63.0,53.1,70,30.04,10.0,SSW,9.2,-,N/A,,Partly Cloudy,210,2013-03-06 02:53:00
10:53 PM,64.0,55.9,75,30.03,10.0,SW,11.5,-,N/A,,Scattered Clouds,220,2013-03-06 03:53:00
11:53 PM,62.1,57.0,84,30.01,10.0,SSW,11.5,20.7,N/A,,Clear,210,2013-03-06 04:53:00